TimeCDT,TemperatureF,Dew PointF,Humidity,Sea Level PressureIn,VisibilityMPH,Wind Direction,Wind SpeedMPH,Gust SpeedMPH,PrecipitationIn,Events,Conditions,WindDirDegrees,DateUTC
12:53 AM,55.9,37.0,49,30.02,10.0,Calm,Calm,-,N/A,,Clear,0,2013-03-21 05:53:00
1:53 AM,55.0,36.0,49,30.01,10.0,East,3.5,-,N/A,,Clear,90,2013-03-21 06:53:00
2:53 AM,55.0,37.0,51,30.00,10.0,ESE,4.6,-,N/A,,Scattered Clouds,110,2013-03-21 07:53:00
3:53 AM,54.0,39.9,59,29.96,10.0,SE,8.1,-,N/A,,Partly Cloudy,130,2013-03-21 08:53:00
4:53 AM,52.0,42.1,69,29.95,10.0,ESE,5.8,-,N/A,,Scattered Clouds,120,2013-03-21 09:53:00
5:53 AM,51.1,43.0,74,29.94,10.0,SE,4.6,-,N/A,,Partly Cloudy,130,2013-03-21 10:53:00
6:53 AM,51.1,45.0,80,29.94,10.0,ESE,5.8,-,N/A,,Clear,110,2013-03-21 11:53:00
7:53 AM,51.1,46.9,86,29.94,10.0,SE,4.6,-,N/A,,Scattered Clouds,130,2013-03-21 12:53:00
8:53 AM,55.9,50.0,80,29.93,4.0,SSE,8.1,-,N/A,,Haze,160,2013-03-21 13:53:00
9:53 AM,60.1,50.0,69,29.93,10.0,SSE,12.7,-,N/A,,Scattered Clouds,160,2013-03-21 14:53:00
10:53 AM,66.9,51.1,57,29.91,10.0,SSE,19.6,25.3,N/A,,Clear,160,2013-03-21 15:53:00
11:53 AM,69.1,48.9,49,29.88,10.0,South,20.7,28.8,N/A,,Clear,180,2013-03-21 16:53:00
12:53 PM,71.1,50.0,47,29.84,10.0,South,18.4,29.9,N/A,,Scattered Clouds,180,2013-03-21 17:53:00
1:53 PM,71.1,52.0,51,29.79,10.0,South,18.4,-,N/A,,Overcast,180,2013-03-21 18:53:00
2:53 PM,71.1,53.1,53,29.75,10.0,South,19.6,29.9,N/A,,Overcast,190,2013-03-21 19:53:00
3:53 PM,72.0,54.0,53,29.70,10.0,South,17.3,28.8,N/A,,Overcast,180,2013-03-21 20:53:00
4:53 PM,72.0,55.9,57,29.68,10.0,South,23.0,29.9,N/A,,Overcast,170,2013-03-21 21:53:00
5:53 PM,70.0,57.0,63,29.67,10.0,South,19.6,28.8,N/A,,Overcast,170,2013-03-21 22:53:00
6:53 PM,69.1,57.0,65,29.64,10.0,SSE,20.7,33.4,N/A,,Overcast,160,2013-03-21 23:53:00
7:10 PM,69.8,57.2,64,29.66,10.0,South,19.6,26.5,N/A,,Overcast,170,2013-03-22 00:10:00
7:53 PM,68.0,57.9,70,29.67,10.0,South,16.1,24.2,N/A,,Overcast,180,2013-03-22 00:53:00
8:25 PM,66.2,59.0,78,29.68,10.0,South,15.0,26.5,N/A,,Overcast,170,2013-03-22 01:25:00
8:40 PM,66.2,59.0,78,29.68,10.0,South,15.0,24.2,N/A,,Overcast,170,2013-03-22 01:40:00
8:53 PM,66.9,59.0,76,29.68,10.0,South,12.7,-,N/A,,Overcast,170,2013-03-22 01:53:00
9:53 PM,66.9,60.1,79,29.70,10.0,South,12.7,-,N/A,,Overcast,180,2013-03-22 02:53:00
10:46 PM,66.2,60.8,83,29.71,10.0,SSE,13.8,-,N/A,,Overcast,150,2013-03-22 03:46:00
10:53 PM,66.0,61.0,84,29.70,10.0,SE,11.5,-,N/A,,Overcast,140,2013-03-22 03:53:00
11:53 PM,66.0,61.0,84,29.69,10.0,SSE,13.8,-,N/A,,Overcast,160,2013-03-22 04:53:00